Darstellungsparameter: Aktuell verwendete Einstellungen:
Skalierung der Graphiken ... ?
xyx+y,   Skalierungsfaktor:      Skalierung: Modus: x, Faktor: 1
Darstellungszeitraum ... ?
Vom - - bis: - -   Zeitraum: 28.08.2018 - 28.08.2018
Min/Max/Avg-Anzeige ... ?
Zeige MMA aktuell
Zeige MMA Monat
Zeige MMA alles
Zeige --A aktuell
Zeige --A Monat
Zeige --A alles
Keine MMA-Anzeige
MMA:
Keine MMA-Graphiken
MMA-Basis: 28.08.2018 - 28.08.2018
Quicknavigation für Darstellung... ?
Tage:      1T, 2T, 3T, 5T -1T -2T -3T -5T +1T +2T +3T +5T
Wochen: 1W, 2W, 3W -1W -2W -3W +1W +2W +3W
Monate: 1M, 3M, 6M -1M -3M -6M +1M +3M +6M
Jahre:    1J, 3J, 5J, 10J -1J -3J -5J -10J +1J +3J +5J +10J
Nutze für die Darstellung ... ?
Originaldaten oder Mittelwerte auf ...
Stundenbasis Tagesbasis Wochenbasis
Monatsbasis Jahresbasis      Datenbasis: Original-Daten
Darstellen als:
Statistik (Auto) Statistik J:M      Darstellung:
Zur Graphik,    zurück zur Übersicht aller Sensoren.
 
Tabellarische Datenbersicht: ?
 
Sensor: Nr:Datum:Temp:Feuchte:Taupunkt:
Aussen-T/F 1 28-08-2018 00:00:00 15.7 C 76 % 11.48 C
2 28-08-2018 00:05:00 15.7 C 76 % 11.48 C
3 28-08-2018 00:10:00 15.8 C 77 % 11.78 C
4 28-08-2018 00:15:00 15.8 C 77 % 11.78 C
5 28-08-2018 00:20:00 15.8 C 77 % 11.78 C
6 28-08-2018 00:25:00 15.9 C 77 % 11.88 C
7 28-08-2018 00:30:00 15.9 C 77 % 11.88 C
8 28-08-2018 00:35:00 15.9 C 77 % 11.88 C
9 28-08-2018 00:40:00 15.9 C 77 % 11.88 C
10 28-08-2018 00:45:00 15.9 C 77 % 11.88 C
11 28-08-2018 00:50:00 15.9 C 77 % 11.88 C
12 28-08-2018 00:55:00 15.8 C 77 % 11.78 C
13 28-08-2018 01:00:00 15.8 C 77 % 11.78 C
14 28-08-2018 01:05:00 15.8 C 77 % 11.78 C
15 28-08-2018 01:10:00 15.7 C 77 % 11.68 C
16 28-08-2018 01:15:00 15.8 C 77 % 11.78 C
17 28-08-2018 01:20:00 15.8 C 77 % 11.78 C
18 28-08-2018 01:25:00 15.8 C 78 % 11.97 C
19 28-08-2018 01:30:00 15.8 C 77 % 11.78 C
20 28-08-2018 01:35:00 15.8 C 77 % 11.78 C
21 28-08-2018 01:40:00 15.7 C 77 % 11.68 C
22 28-08-2018 01:45:00 15.7 C 77 % 11.68 C
23 28-08-2018 01:50:00 15.7 C 77 % 11.68 C
24 28-08-2018 01:55:00 15.7 C 77 % 11.68 C
25 28-08-2018 02:00:00 15.7 C 78 % 11.88 C
Sensor: Nr:Datum:Temp:Feuchte:Taupunkt:
Aussen-T/F 26 28-08-2018 02:05:00 15.7 C 78 % 11.88 C
27 28-08-2018 02:10:00 15.6 C 78 % 11.78 C
28 28-08-2018 02:15:00 15.6 C 78 % 11.78 C
29 28-08-2018 02:20:00 15.6 C 78 % 11.78 C
30 28-08-2018 02:25:00 15.6 C 78 % 11.78 C
31 28-08-2018 02:30:00 15.6 C 77 % 11.59 C
32 28-08-2018 02:35:00 15.5 C 78 % 11.68 C
33 28-08-2018 02:40:00 15.5 C 77 % 11.49 C
34 28-08-2018 02:45:00 15.5 C 78 % 11.68 C
35 28-08-2018 02:50:00 15.4 C 78 % 11.59 C
36 28-08-2018 02:55:00 15.3 C 77 % 11.3 C
37 28-08-2018 03:00:00 15.1 C 78 % 11.3 C
38 28-08-2018 03:05:00 14.8 C 78 % 11 C
39 28-08-2018 03:10:00 14.6 C 79 % 11 C
40 28-08-2018 03:15:00 14.4 C 80 % 11 C
41 28-08-2018 03:20:00 14.2 C 80 % 10.8 C
42 28-08-2018 03:25:00 14 C 81 % 10.79 C
43 28-08-2018 03:30:00 13.8 C 81 % 10.6 C
44 28-08-2018 03:35:00 13.6 C 81 % 10.4 C
45 28-08-2018 03:40:00 13.4 C 82 % 10.39 C
46 28-08-2018 03:45:00 13.3 C 83 % 10.48 C
47 28-08-2018 03:50:00 13.2 C 83 % 10.38 C
48 28-08-2018 03:55:00 13.1 C 84 % 10.46 C
49 28-08-2018 04:00:00 13 C 84 % 10.36 C
50 28-08-2018 04:05:00 12.9 C 84 % 10.26 C
Sensor: Nr:Datum:Temp:Feuchte:Taupunkt:
Aussen-T/F 51 28-08-2018 04:10:00 12.8 C 84 % 10.17 C
52 28-08-2018 04:15:00 12.7 C 85 % 10.25 C
53 28-08-2018 04:20:00 12.6 C 85 % 10.15 C
54 28-08-2018 04:25:00 12.4 C 85 % 9.95 C
55 28-08-2018 04:30:00 12.3 C 85 % 9.85 C
56 28-08-2018 04:35:00 12.3 C 86 % 10.03 C
57 28-08-2018 04:40:00 12.2 C 86 % 9.93 C
58 28-08-2018 04:45:00 12.1 C 86 % 9.83 C
59 28-08-2018 04:50:00 12.1 C 87 % 10 C
60 28-08-2018 04:55:00 12.1 C 87 % 10 C
61 28-08-2018 05:00:00 12.1 C 87 % 10 C
62 28-08-2018 05:05:00 12.2 C 88 % 10.27 C
63 28-08-2018 05:10:00 12.2 C 88 % 10.27 C
64 28-08-2018 05:15:00 12.3 C 88 % 10.37 C
65 28-08-2018 05:20:00 12.3 C 88 % 10.37 C
66 28-08-2018 05:25:00 12.4 C 88 % 10.47 C
67 28-08-2018 05:30:00 12.5 C 87 % 10.4 C
68 28-08-2018 05:35:00 12.6 C 87 % 10.5 C
69 28-08-2018 05:40:00 12.7 C 87 % 10.59 C
70 28-08-2018 05:45:00 12.7 C 87 % 10.59 C
71 28-08-2018 05:50:00 12.7 C 87 % 10.59 C
72 28-08-2018 05:55:00 12.7 C 87 % 10.59 C
73 28-08-2018 06:00:00 12.8 C 86 % 10.52 C
74 28-08-2018 06:05:00 12.8 C 86 % 10.52 C
75 28-08-2018 06:10:00 12.8 C 86 % 10.52 C
Sensor: Nr:Datum:Temp:Feuchte:Taupunkt:
Aussen-T/F 76 28-08-2018 06:15:00 12.8 C 86 % 10.52 C
77 28-08-2018 06:20:00 12.8 C 86 % 10.52 C
78 28-08-2018 06:25:00 12.8 C 86 % 10.52 C
79 28-08-2018 06:30:00 12.8 C 86 % 10.52 C
80 28-08-2018 06:35:00 12.8 C 86 % 10.52 C
81 28-08-2018 06:40:00 12.8 C 86 % 10.52 C
82 28-08-2018 06:45:00 12.8 C 86 % 10.52 C
83 28-08-2018 06:50:00 12.8 C 86 % 10.52 C
84 28-08-2018 06:55:00 12.8 C 86 % 10.52 C
85 28-08-2018 07:00:00 12.9 C 86 % 10.62 C
86 28-08-2018 07:05:00 12.9 C 86 % 10.62 C
87 28-08-2018 07:10:00 12.9 C 86 % 10.62 C
88 28-08-2018 07:15:00 12.9 C 86 % 10.62 C
89 28-08-2018 07:20:00 13 C 86 % 10.72 C
90 28-08-2018 07:25:00 13 C 86 % 10.72 C
91 28-08-2018 07:30:00 13.1 C 86 % 10.81 C
92 28-08-2018 07:35:00 13.1 C 86 % 10.81 C
93 28-08-2018 07:40:00 13.2 C 86 % 10.91 C
94 28-08-2018 07:45:00 13.2 C 86 % 10.91 C
95 28-08-2018 07:50:00 13.3 C 86 % 11.01 C
96 28-08-2018 07:55:00 13.3 C 85 % 10.83 C
97 28-08-2018 08:00:00 13.4 C 84 % 10.75 C
98 28-08-2018 08:05:00 13.6 C 84 % 10.95 C
99 28-08-2018 08:10:00 13.6 C 84 % 10.95 C
100 28-08-2018 08:15:00 13.7 C 83 % 10.87 C
Sensor: Nr:Datum:Temp:Feuchte:Taupunkt:
Aussen-T/F 101 28-08-2018 08:20:00 13.7 C 83 % 10.87 C
102 28-08-2018 08:25:00 13.7 C 83 % 10.87 C
103 28-08-2018 08:30:00 13.7 C 84 % 11.05 C
104 28-08-2018 08:35:00 13.8 C 84 % 11.15 C
105 28-08-2018 08:40:00 13.8 C 84 % 11.15 C
106 28-08-2018 08:45:00 13.8 C 83 % 10.97 C
107 28-08-2018 08:50:00 13.8 C 83 % 10.97 C
108 28-08-2018 08:55:00 13.9 C 83 % 11.06 C
109 28-08-2018 09:00:00 13.9 C 83 % 11.06 C
110 28-08-2018 09:05:00 14 C 83 % 11.16 C
111 28-08-2018 09:10:00 14.1 C 83 % 11.26 C
112 28-08-2018 09:15:00 14.2 C 83 % 11.36 C
113 28-08-2018 09:20:00 14.2 C 83 % 11.36 C
114 28-08-2018 09:25:00 14.3 C 83 % 11.45 C
115 28-08-2018 09:30:00 14.3 C 83 % 11.45 C
116 28-08-2018 09:35:00 14.4 C 83 % 11.55 C
117 28-08-2018 09:40:00 14.6 C 84 % 11.93 C
118 28-08-2018 09:45:00 14.6 C 84 % 11.93 C
119 28-08-2018 09:50:00 14.7 C 84 % 12.03 C
120 28-08-2018 09:55:00 14.8 C 84 % 12.12 C
121 28-08-2018 10:00:00 14.8 C 82 % 11.76 C
122 28-08-2018 10:05:00 14.9 C 83 % 12.04 C
123 28-08-2018 10:10:00 15.1 C 83 % 12.24 C
124 28-08-2018 10:15:00 15.3 C 81 % 12.06 C
125 28-08-2018 10:20:00 15.4 C 81 % 12.16 C
Sensor: Nr:Datum:Temp:Feuchte:Taupunkt:
Aussen-T/F 126 28-08-2018 10:25:00 15.8 C 80 % 12.36 C
127 28-08-2018 10:30:00 16.1 C 79 % 12.46 C
128 28-08-2018 10:35:00 16.5 C 78 % 12.65 C
129 28-08-2018 10:40:00 17 C 77 % 12.94 C
130 28-08-2018 10:45:00 17.3 C 75 % 12.83 C
131 28-08-2018 10:50:00 17.5 C 74 % 12.82 C
132 28-08-2018 10:55:00 17.8 C 73 % 12.9 C
133 28-08-2018 11:00:00 18 C 71 % 12.67 C
134 28-08-2018 11:05:00 18.2 C 70 % 12.64 C
135 28-08-2018 11:10:00 18.4 C 69 % 12.61 C
136 28-08-2018 11:15:00 18.5 C 69 % 12.71 C
137 28-08-2018 11:20:00 18.7 C 66 % 12.22 C
138 28-08-2018 11:25:00 18.8 C 67 % 12.55 C
139 28-08-2018 11:30:00 18.9 C 67 % 12.64 C
140 28-08-2018 11:35:00 19 C 66 % 12.51 C
141 28-08-2018 11:40:00 19.1 C 65 % 12.37 C
142 28-08-2018 11:45:00 19.2 C 65 % 12.47 C
143 28-08-2018 11:50:00 19.3 C 64 % 12.32 C
144 28-08-2018 11:55:00 19.3 C 64 % 12.32 C
145 28-08-2018 12:00:00 19.3 C 63 % 12.09 C
146 28-08-2018 12:05:00 19.5 C 63 % 12.27 C
147 28-08-2018 12:10:00 19.6 C 62 % 12.13 C
148 28-08-2018 12:15:00 19.6 C 62 % 12.13 C
149 28-08-2018 12:20:00 19.7 C 62 % 12.22 C
150 28-08-2018 12:25:00 19.8 C 61 % 12.07 C
Sensor: Nr:Datum:Temp:Feuchte:Taupunkt:
Aussen-T/F 151 28-08-2018 12:30:00 19.9 C 60 % 11.91 C
152 28-08-2018 12:35:00 19.9 C 61 % 12.16 C
153 28-08-2018 12:40:00 20 C 60 % 12 C
154 28-08-2018 12:45:00 20.1 C 60 % 12.1 C
155 28-08-2018 12:50:00 20.3 C 59 % 12.03 C
156 28-08-2018 12:55:00 20.4 C 59 % 12.12 C
157 28-08-2018 13:00:00 20.4 C 59 % 12.12 C
158 28-08-2018 13:05:00 20.5 C 59 % 12.22 C
159 28-08-2018 13:10:00 20.6 C 58 % 12.05 C
160 28-08-2018 13:15:00 20.7 C 56 % 11.61 C
161 28-08-2018 13:20:00 20.7 C 56 % 11.61 C
162 28-08-2018 13:25:00 20.8 C 57 % 11.97 C
163 28-08-2018 13:30:00 20.9 C 56 % 11.8 C
164 28-08-2018 13:35:00 21 C 56 % 11.89 C
165 28-08-2018 13:40:00 21.1 C 56 % 11.99 C
166 28-08-2018 13:45:00 21.4 C 55 % 11.99 C
167 28-08-2018 13:50:00 21.7 C 54 % 11.99 C
168 28-08-2018 13:55:00 21.9 C 54 % 12.18 C
169 28-08-2018 14:00:00 22.1 C 53 % 12.08 C
170 28-08-2018 14:05:00 22.3 C 53 % 12.26 C
171 28-08-2018 14:10:00 22.4 C 52 % 12.07 C
172 28-08-2018 14:15:00 22.4 C 52 % 12.07 C
173 28-08-2018 14:20:00 22.5 C 52 % 12.16 C
174 28-08-2018 14:25:00 22.5 C 52 % 12.16 C
175 28-08-2018 14:30:00 22.6 C 53 % 12.54 C
Sensor: Nr:Datum:Temp:Feuchte:Taupunkt:
Aussen-T/F 176 28-08-2018 14:35:00 22.7 C 51 % 12.05 C
177 28-08-2018 14:40:00 22.8 C 50 % 11.84 C
178 28-08-2018 14:45:00 23 C 50 % 12.02 C
179 28-08-2018 14:50:00 23.2 C 50 % 12.21 C
180 28-08-2018 14:55:00 23.3 C 50 % 12.3 C
181 28-08-2018 15:00:00 23.3 C 49 % 11.99 C
182 28-08-2018 15:05:00 23.6 C 49 % 12.27 C
183 28-08-2018 15:10:00 23.7 C 48 % 12.04 C
184 28-08-2018 15:15:00 23.7 C 49 % 12.36 C
185 28-08-2018 15:20:00 23.6 C 48 % 11.95 C
186 28-08-2018 15:25:00 23.6 C 49 % 12.27 C
187 28-08-2018 15:30:00 23.8 C 48 % 12.14 C
188 28-08-2018 15:35:00 23.8 C 48 % 12.14 C
189 28-08-2018 15:40:00 23.8 C 48 % 12.14 C
190 28-08-2018 15:45:00 23.9 C 48 % 12.23 C
191 28-08-2018 15:50:00 23.9 C 48 % 12.23 C
192 28-08-2018 15:55:00 24 C 47 % 12 C
193 28-08-2018 16:00:00 24.1 C 46 % 11.76 C
194 28-08-2018 16:05:00 24.1 C 47 % 12.09 C
195 28-08-2018 16:10:00 24.2 C 46 % 11.85 C
196 28-08-2018 16:15:00 24.2 C 46 % 11.85 C
197 28-08-2018 16:20:00 24.3 C 47 % 12.27 C
198 28-08-2018 16:25:00 24.8 C 47 % 12.73 C
199 28-08-2018 16:30:00 25.3 C 44 % 12.18 C
200 28-08-2018 16:35:00 25.7 C 43 % 12.19 C
Sensor: Nr:Datum:Temp:Feuchte:Taupunkt:
Aussen-T/F 201 28-08-2018 16:40:00 26.1 C 42 % 12.19 C
202 28-08-2018 16:45:00 26.2 C 42 % 12.28 C
203 28-08-2018 16:50:00 26.3 C 43 % 12.73 C
204 28-08-2018 16:55:00 26.4 C 41 % 12.09 C
205 28-08-2018 17:00:00 26.6 C 41 % 12.27 C
206 28-08-2018 17:05:00 26.7 C 41 % 12.36 C
207 28-08-2018 17:10:00 26.8 C 40 % 12.07 C
208 28-08-2018 17:15:00 26.8 C 40 % 12.07 C
209 28-08-2018 17:20:00 26.3 C 41 % 12 C
210 28-08-2018 17:25:00 26.1 C 43 % 12.55 C
211 28-08-2018 17:30:00 26.2 C 42 % 12.28 C
212 28-08-2018 17:35:00 26.3 C 41 % 12 C
213 28-08-2018 17:40:00 26.6 C 41 % 12.27 C
214 28-08-2018 17:45:00 26.5 C 41 % 12.18 C
215 28-08-2018 17:50:00 26.3 C 41 % 12 C
216 28-08-2018 17:55:00 25.9 C 43 % 12.37 C
217 28-08-2018 18:00:00 25.9 C 43 % 12.37 C
218 28-08-2018 18:05:00 26 C 41 % 11.73 C
219 28-08-2018 18:10:00 26.1 C 42 % 12.19 C
220 28-08-2018 18:15:00 26 C 42 % 12.1 C
221 28-08-2018 18:20:00 25.9 C 42 % 12.01 C
222 28-08-2018 18:25:00 25.9 C 41 % 11.64 C
223 28-08-2018 18:30:00 25.9 C 42 % 12.01 C
224 28-08-2018 18:35:00 26.1 C 42 % 12.19 C
225 28-08-2018 18:40:00 26.3 C 43 % 12.73 C
Sensor: Nr:Datum:Temp:Feuchte:Taupunkt:
Aussen-T/F 226 28-08-2018 18:45:00 26.5 C 41 % 12.18 C
227 28-08-2018 18:50:00 26.7 C 41 % 12.36 C
228 28-08-2018 18:55:00 26.7 C 43 % 13.09 C
229 28-08-2018 19:00:00 26.6 C 42 % 12.64 C
230 28-08-2018 19:05:00 26.3 C 41 % 12 C
231 28-08-2018 19:10:00 26.3 C 44 % 13.08 C
232 28-08-2018 19:15:00 26.1 C 43 % 12.55 C
233 28-08-2018 19:20:00 25.9 C 45 % 13.06 C
234 28-08-2018 19:25:00 25.6 C 47 % 13.45 C
235 28-08-2018 19:30:00 25.1 C 48 % 13.32 C
236 28-08-2018 19:35:00 24.7 C 49 % 13.27 C
237 28-08-2018 19:40:00 24.3 C 50 % 13.22 C
238 28-08-2018 19:45:00 23.8 C 51 % 13.06 C
239 28-08-2018 19:50:00 23.4 C 52 % 12.99 C
240 28-08-2018 19:55:00 22.9 C 53 % 12.82 C
241 28-08-2018 20:00:00 22.5 C 55 % 13.01 C
242 28-08-2018 20:05:00 22 C 56 % 12.82 C
243 28-08-2018 20:10:00 21.5 C 57 % 12.63 C
244 28-08-2018 20:15:00 21.1 C 58 % 12.52 C
245 28-08-2018 20:20:00 20.6 C 59 % 12.31 C
246 28-08-2018 20:25:00 20.1 C 60 % 12.1 C
247 28-08-2018 20:30:00 19.7 C 61 % 11.97 C
248 28-08-2018 20:35:00 19.3 C 61 % 11.6 C
249 28-08-2018 20:40:00 19 C 62 % 11.56 C
250 28-08-2018 20:45:00 18.8 C 62 % 11.37 C
Sensor: Nr:Datum:Temp:Feuchte:Taupunkt:
Aussen-T/F 251 28-08-2018 20:50:00 18.6 C 63 % 11.42 C
252 28-08-2018 20:55:00 18.5 C 63 % 11.33 C
253 28-08-2018 21:00:00 18.3 C 63 % 11.14 C
254 28-08-2018 21:05:00 18.3 C 64 % 11.38 C
255 28-08-2018 21:10:00 18.2 C 64 % 11.28 C
256 28-08-2018 21:15:00 18.1 C 65 % 11.42 C
257 28-08-2018 21:20:00 18 C 64 % 11.09 C
258 28-08-2018 21:25:00 17.9 C 64 % 11 C
259 28-08-2018 21:30:00 17.8 C 64 % 10.9 C
260 28-08-2018 21:35:00 17.8 C 65 % 11.14 C
261 28-08-2018 21:40:00 17.7 C 65 % 11.04 C
262 28-08-2018 21:45:00 17.6 C 65 % 10.95 C
263 28-08-2018 21:50:00 17.5 C 65 % 10.85 C
264 28-08-2018 21:55:00 17.3 C 66 % 10.89 C
265 28-08-2018 22:00:00 17.2 C 66 % 10.8 C
266 28-08-2018 22:05:00 17.1 C 66 % 10.7 C
267 28-08-2018 22:10:00 16.9 C 67 % 10.74 C
268 28-08-2018 22:15:00 16.8 C 67 % 10.64 C
269 28-08-2018 22:20:00 16.7 C 67 % 10.55 C
270 28-08-2018 22:25:00 16.6 C 67 % 10.45 C
271 28-08-2018 22:30:00 16.6 C 68 % 10.67 C
272 28-08-2018 22:35:00 16.4 C 68 % 10.48 C
273 28-08-2018 22:40:00 16.3 C 68 % 10.39 C
274 28-08-2018 22:45:00 16.3 C 68 % 10.39 C
275 28-08-2018 22:50:00 16.3 C 68 % 10.39 C
Sensor: Nr:Datum:Temp:Feuchte:Taupunkt:
Aussen-T/F 276 28-08-2018 22:55:00 16.2 C 68 % 10.29 C
277 28-08-2018 23:00:00 16.2 C 69 % 10.51 C
278 28-08-2018 23:05:00 16.1 C 69 % 10.42 C
279 28-08-2018 23:10:00 15.9 C 69 % 10.23 C
280 28-08-2018 23:15:00 15.8 C 70 % 10.34 C
281 28-08-2018 23:20:00 15.8 C 70 % 10.34 C
282 28-08-2018 23:25:00 15.7 C 71 % 10.46 C
283 28-08-2018 23:30:00 15.6 C 71 % 10.37 C
284 28-08-2018 23:35:00 15.4 C 71 % 10.17 C
285 28-08-2018 23:40:00 15.4 C 72 % 10.38 C
286 28-08-2018 23:45:00 15.3 C 72 % 10.29 C
287 28-08-2018 23:50:00 15.2 C 72 % 10.19 C
288 28-08-2018 23:55:00 15.1 C 73 % 10.3 C

Legende:
   Min
   Max


Maximal/Minimal-Werte vom 28.08.2018 - 28.08.2018

Sensor Min Max Avg
Temp
(Aussen-T/F)
12.1 °C
28-08-2018  04:45:00
26.8 °C
28-08-2018  17:10:00
18.13 °C
Feuchte
(Aussen-T/F)
40 %
28-08-2018  17:10:00
88 %
28-08-2018  05:05:00
67.66 %
Taupunkt
(Aussen-T/F)
9.83 C
28-08-2018  04:45:00
13.45 C
28-08-2018  19:25:00
11.51 C

Die Daten stammen von einer Davis Vantage Pro 2 Wetter-Station und werden unter Linux mit der Software wview2wettercgi und aufbereitet. Alle Angaben erfolgen ohne Gewähr für ihre Vollständigkeit oder Richtigkeit.
Kontakt: Rainer Krienke krienke@uni-koblenz.de . Meine Webseiten an der Uni Koblenz oder privat.
Version: $Revision: 0.78 $